Flag for Poland Weather past 2 weeks in Ruda Śląska, Poland

39 °F

Light rain. Passing clouds.

Feels Like: 31 °F
Forecast: 38 / 45 °F
Wind: 14 mph from Southwest

Location: Katowice Airport

Current Time: Nov 29, 2015 at 6:58:16 PM

Latest Report: Nov 29, 2015 at 6:30 PM

Visibility: N/A

Pressure: 29.89 "Hg

Humidity: 81%

Dew point: 34 °F

Location of Ruda ŚląskaLocation

Historic Weather in Ruda Śląska — Graph


Ruda Śląska temperature yesterday

Maximum temperature yesterday: 36 °F (at 1:30 PM)
Minimum temperature yesterday: 30 °F (at 1:00 AM)
Average temperature yesterday: 32 °F

Past Weeks' High & Low Weather Summary

High55 °F (Nov 18, 8:00 AM)100% (Nov 15, 6:30 PM)30.27 "Hg (Nov 15, 6:30 PM)
Low19 °F (Nov 27, 3:00 AM)56% (Nov 25, 2:00 PM)29.36 "Hg (Nov 21, 12:00 AM)
Average38 °F87%29.83 "Hg
* Reported Nov 14 6:00 PM — Nov 29 6:00 PM, Ruda Śląska, Weather by CustomWeather, © 2015

Note: Actual official high and low records may vary slightly from our data, if they occured in-between our weather recording intervals... More about our weather records


Ruda Śląska weather history for previous 24 hours

Time TempWeatherWind HumidityBarometerVisibility
6:00 PM
Sun, Nov 29
37 °FLight rain. Passing clouds.14 mph87%29.89 "HgN/A
5:30 PM37 °FPassing clouds.13 mph81%29.89 "HgN/A
5:00 PM37 °FPassing clouds.13 mph81%29.89 "HgN/A
4:30 PM37 °FPartly cloudy.14 mph81%29.89 "HgN/A
4:00 PM37 °FPassing clouds.14 mph81%29.89 "HgN/A
3:30 PM37 °FScattered clouds.15 mph81%29.89 "HgN/A
3:00 PM37 °FPartly sunny.17 mph81%29.89 "HgN/A
2:30 PM39 °FPartly sunny.17 mph70%29.89 "HgN/A
2:00 PM39 °FBroken clouds.17 mph70%29.89 "HgN/A
1:30 PM39 °FPartly sunny.17 mph70%29.89 "HgN/A
1:00 PM39 °FPartly sunny.18 mph70%29.89 "HgN/A
12:30 PM39 °FPartly sunny.17 mph70%29.89 "HgN/A
12:00 PM39 °FScattered clouds.20 mph70%29.89 "HgN/A
11:30 AM39 °FSunny.20 mph70%29.89 "Hg10 mi
10:30 AM37 °FSunny.17 mph75%29.92 "Hg10 mi
10:00 AM36 °FSunny.17 mph81%29.92 "Hg10 mi
9:30 AM34 °FSunny.15 mph87%29.95 "Hg10 mi
9:00 AM34 °FSunny.13 mph87%29.95 "Hg10 mi
8:00 AM32 °FClear.12 mph87%29.95 "Hg4 mi
7:30 AM30 °FClear.10 mph93%29.95 "Hg4 mi
7:00 AM32 °FIce fog.9 mph87%29.95 "Hg3 mi
6:00 AM32 °FPassing clouds.10 mph93%29.98 "HgN/A
5:30 AM34 °FPartly cloudy.9 mph93%29.98 "HgN/A
5:00 AM34 °FPassing clouds.9 mph93%29.98 "Hg4 mi
4:30 AM34 °FPassing clouds.9 mph93%29.98 "Hg4 mi
4:00 AM34 °FPassing clouds.12 mph93%29.98 "Hg4 mi
3:30 AM34 °FPartly cloudy.12 mph100%29.98 "Hg4 mi
3:00 AM34 °FPartly cloudy.12 mph100%29.98 "Hg4 mi
2:30 AM34 °FFog.10 mph100%29.98 "Hg3 mi
2:00 AM34 °FFog.12 mph100%29.95 "Hg2 mi
1:30 AM34 °FLight rain. Fog.12 mph100%29.95 "Hg2 mi
1:00 AM34 °FLight rain. Fog.12 mph93%29.95 "Hg1 mi
12:30 AM32 °FLight rain. Ice fog.13 mph100%29.95 "Hg1 mi
12:00 AM32 °FRain. Ice fog.13 mph100%29.92 "Hg1 mi
11:00 PM
Sat, Nov 28
32 °FSnow. Ice fog.13 mph100%29.92 "Hg1 mi
10:30 PM32 °FSnow. Ice fog.13 mph93%29.89 "Hg1 mi
9:30 PM34 °FLight snow. Fog.12 mph81%29.89 "Hg3 mi
9:00 PM34 °FPassing clouds.9 mph81%29.86 "Hg6 mi
8:30 PM34 °FPassing clouds.9 mph75%29.86 "Hg6 mi
8:00 PM32 °FPassing clouds.8 mph80%29.86 "HgN/A
7:30 PM32 °FClear.9 mph80%29.83 "Hg5 mi
7:00 PM32 °FPassing clouds.9 mph87%29.83 "Hg4 mi
6:30 PM32 °FIce fog.12 mph87%29.83 "Hg2 mi
6:00 PM32 °FIce fog.7 mph87%29.80 "Hg2 mi
Weather by CustomWeather, © 2015

See weather overviewHow to use our weather pages